Location: Unspecified
(49.2170°N, 0.0000°E)
Time: 14:24:06
(UTC+00:00)

A-11 Canister half - Pass Details

Date: 16 June 2019
Orbit: 1526 x 1682 km, 47.3° (Epoch: 24 August)

Event Time Altitude Azimuth Distance (km) Brightness Sun altitude
Rises 06:57:21 0° 238° (WSW) 4,705 11.1 26.5°
Reaches altitude 10° 07:00:26 10° 235° (SW) 3,711 10.6 27.0°
Maximum altitude 07:09:36 64° 157° (SSE) 1,671 9.8 28.5°
Drops below altitude 10° 07:18:44 10° 80° (E) 3,706 12.6 30.0°
Sets 07:21:49 0° 77° (ENE) 4,700 12.7 30.5°
